• In Deutschland
  • Länderverzeichnis
  • Für 7 Tage
  • Wassertemperatur
  • Satellitenkarten
  • Wetterkarte
  • Widgets
  • user-avatar
    Anmelden

    Stündliche Wetter Hamhŭng

    Heute, 22 Juli, Sonntag

    Zeit Temperatur Niederschläge Wind Luftdruck Luftfeuchtigkeit
    00:00 +26°C° 0 mm 2 m/S 754 mmHg 80%
    01:00 +26°C° 0 mm 2 m/S 754 mmHg 78%
    02:00 +25°C° 0 mm 2 m/S 754 mmHg 75%
    03:00 +25°C° 0 mm 2 m/S 754 mmHg 71%
    04:00 +25°C° 0 mm 2 m/S 754 mmHg 69%
    05:00 +24°C° 0 mm 2 m/S 754 mmHg 66%
    06:00 +24°C° 0 mm 2 m/S 754 mmHg 63%
    07:00 +27°C° 0 mm 2 m/S 754 mmHg 57%
    08:00 +30°C° 0 mm 2 m/S 754 mmHg 51%
    09:00 +34°C° 0 mm 1 m/S 754 mmHg 43%
    10:00 +36°C° 0 mm 2 m/S 754 mmHg 39%
    11:00 +38°C° 0 mm 2 m/S 754 mmHg 35%
    12:00 +40°C° 0 mm 2 m/S 753 mmHg 32%
    13:00 +40°C° 0 mm 2 m/S 753 mmHg 33%
    14:00 +40°C° 0 mm 2 m/S 753 mmHg 34%
    15:00 +41°C° 0 mm 2 m/S 753 mmHg 34%
    16:00 +39°C° 0 mm 2 m/S 753 mmHg 42%
    17:00 +38°C° 0 mm 2 m/S 753 mmHg 51%
    18:00 +37°C° 0 mm 2 m/S 753 mmHg 59%
    19:00 +34°C° 0 mm 2 m/S 753 mmHg 65%
    20:00 +31°C° 0 mm 1 m/S 753 mmHg 71%
    21:00 +28°C° 0 mm 1 m/S 753 mmHg 77%
    22:00 +28°C° 0 mm 1 m/S 753 mmHg 77%
    23:00 +27°C° 0 mm 1 m/S 754 mmHg 76%

    Morgen, 23 Juli, Montag

    Zeit Temperatur Niederschläge Wind Luftdruck Luftfeuchtigkeit
    00:00 +27°C° 0 mm 1 m/S 754 mmHg 75%
    01:00 +27°C° 0 mm 2 m/S 754 mmHg 73%
    02:00 +27°C° 0 mm 2 m/S 754 mmHg 72%
    03:00 +27°C° 0 mm 2 m/S 754 mmHg 70%
    04:00 +27°C° 0 mm 2 m/S 754 mmHg 70%
    05:00 +26°C° 0 mm 2 m/S 754 mmHg 70%
    06:00 +26°C° 0 mm 2 m/S 754 mmHg 70%
    07:00 +29°C° 0 mm 1 m/S 754 mmHg 65%
    08:00 +32°C° 0 mm 1 m/S 754 mmHg 59%
    09:00 +34°C° 0 mm 1 m/S 754 mmHg 53%
    10:00 +35°C° 0 mm 1 m/S 754 mmHg 51%
    11:00 +36°C° 0 mm 1 m/S 754 mmHg 49%
    12:00 +37°C° 0 mm 1 m/S 753 mmHg 47%
    13:00 +37°C° 0 mm 1 m/S 753 mmHg 49%
    14:00 +37°C° 0 mm 1 m/S 753 mmHg 50%
    15:00 +37°C° 0 mm 1 m/S 753 mmHg 52%
    16:00 +36°C° 0 mm 1 m/S 753 mmHg 58%
    17:00 +35°C° 0 mm 1 m/S 753 mmHg 65%
    18:00 +34°C° 0 mm 1 m/S 753 mmHg 71%
    19:00 +32°C° 0 mm 1 m/S 753 mmHg 75%
    20:00 +31°C° 0 mm 1 m/S 753 mmHg 80%
    21:00 +29°C° 0 mm 1 m/S 753 mmHg 84%
    22:00 +29°C° 0 mm 1 m/S 754 mmHg 84%
    23:00 +28°C° 0 mm 1 m/S 754 mmHg 84%

    übermorgen, 24 Juli, Dienstag

    Zeit Temperatur Niederschläge Wind Luftdruck Luftfeuchtigkeit
    00:00 +28°C° 0 mm 1 m/S 754 mmHg 84%
    01:00 +28°C° 0 mm 1 m/S 754 mmHg 83%
    02:00 +28°C° 0 mm 1 m/S 754 mmHg 82%
    03:00 +28°C° 0 mm 1 m/S 754 mmHg 81%
    04:00 +27°C° 0 mm 1 m/S 754 mmHg 81%
    05:00 +27°C° 0 mm 1 m/S 754 mmHg 80%
    06:00 +27°C° 0 mm 1 m/S 754 mmHg 79%
    07:00 +30°C° 0 mm 1 m/S 754 mmHg 73%
    08:00 +32°C° 0 mm 1 m/S 754 mmHg 66%
    09:00 +34°C° 0 mm 1 m/S 754 mmHg 59%
    10:00 +35°C° 0 mm 1 m/S 753 mmHg 57%
    11:00 +37°C° 0 mm 1 m/S 753 mmHg 54%
    12:00 +39°C° 0 mm 2 m/S 753 mmHg 51%
    13:00 +39°C° 0 mm 2 m/S 753 mmHg 51%
    14:00 +39°C° 0 mm 2 m/S 752 mmHg 52%
    15:00 +39°C° 0 mm 3 m/S 752 mmHg 52%
    16:00 +38°C° 0,1 mm 2 m/S 752 mmHg 59%
    17:00 +37°C° 0,1 mm 2 m/S 752 mmHg 65%
    18:00 +36°C° 0,1 mm 2 m/S 752 mmHg 71%
    19:00 +34°C° 0,1 mm 2 m/S 752 mmHg 78%
    20:00 +31°C° 0,1 mm 1 m/S 752 mmHg 84%
    21:00 +29°C° 0,1 mm 1 m/S 753 mmHg 91%
    22:00 +29°C° 0,3 mm 1 m/S 753 mmHg 90%
    23:00 +29°C° 0,3 mm 1 m/S 753 mmHg 90%

    25 Juli, Mittwoch

    Zeit Temperatur Niederschläge Wind Luftdruck Luftfeuchtigkeit
    00:00 +29°C° 0,3 mm 1 m/S 753 mmHg 89%
    01:00 +28°C° 0,1 mm 1 m/S 753 mmHg 90%
    02:00 +28°C° 0,1 mm 1 m/S 752 mmHg 90%
    03:00 +28°C° 0,1 mm 1 m/S 752 mmHg 90%
    04:00 +28°C° 0 mm 1 m/S 752 mmHg 90%
    05:00 +28°C° 0 mm 1 m/S 752 mmHg 91%
    06:00 +28°C° 0 mm 1 m/S 752 mmHg 91%
    07:00 +30°C° 0 mm 1 m/S 752 mmHg 84%
    08:00 +31°C° 0 mm 1 m/S 752 mmHg 77%
    09:00 +34°C° 0 mm 2 m/S 752 mmHg 70%
    10:00 +35°C° 0 mm 2 m/S 752 mmHg 64%
    11:00 +36°C° 0 mm 3 m/S 752 mmHg 59%
    12:00 +38°C° 0 mm 3 m/S 752 mmHg 53%
    13:00 +38°C° 0 mm 3 m/S 751 mmHg 53%
    14:00 +38°C° 0 mm 4 m/S 751 mmHg 54%
    15:00 +38°C° 0 mm 4 m/S 751 mmHg 54%
    16:00 +38°C° 0 mm 4 m/S 751 mmHg 59%
    17:00 +37°C° 0 mm 3 m/S 751 mmHg 64%
    18:00 +36°C° 0 mm 3 m/S 751 mmHg 69%
    19:00 +34°C° 0 mm 3 m/S 751 mmHg 75%
    20:00 +31°C° 0 mm 3 m/S 751 mmHg 82%
    21:00 +30°C° 0 mm 2 m/S 752 mmHg 88%
    22:00 +29°C° 0 mm 3 m/S 752 mmHg 88%
    23:00 +29°C° 0 mm 3 m/S 752 mmHg 88%

    26 Juli, Donnerstag

    Zeit Temperatur Niederschläge Wind Luftdruck Luftfeuchtigkeit
    00:00 +28°C° 0 mm 3 m/S 752 mmHg 88%
    01:00 +28°C° 0 mm 3 m/S 752 mmHg 88%
    02:00 +28°C° 0 mm 3 m/S 752 mmHg 88%
    03:00 +28°C° 0 mm 3 m/S 752 mmHg 88%
    04:00 +27°C° 0 mm 3 m/S 752 mmHg 88%
    05:00 +27°C° 0 mm 3 m/S 752 mmHg 88%
    06:00 +27°C° 0 mm 3 m/S 752 mmHg 87%
    07:00 +29°C° 0 mm 3 m/S 752 mmHg 80%
    08:00 +31°C° 0 mm 3 m/S 752 mmHg 73%
    09:00 +35°C° 0 mm 3 m/S 752 mmHg 65%
    10:00 +36°C° 0 mm 4 m/S 752 mmHg 60%
    11:00 +38°C° 0 mm 4 m/S 752 mmHg 55%
    12:00 +40°C° 0 mm 4 m/S 751 mmHg 50%
    13:00 +40°C° 0 mm 4 m/S 751 mmHg 50%
    14:00 +40°C° 0 mm 4 m/S 751 mmHg 51%
    15:00 +40°C° 0 mm 5 m/S 750 mmHg 51%
    16:00 +40°C° 0 mm 5 m/S 750 mmHg 56%
    17:00 +38°C° 0 mm 4 m/S 750 mmHg 60%
    18:00 +37°C° 0 mm 4 m/S 750 mmHg 65%
    19:00 +35°C° 0 mm 4 m/S 751 mmHg 71%
    20:00 +33°C° 0 mm 3 m/S 751 mmHg 78%
    21:00 +30°C° 0 mm 3 m/S 751 mmHg 84%
    22:00 +30°C° 0 mm 3 m/S 751 mmHg 85%
    23:00 +29°C° 0 mm 3 m/S 751 mmHg 86%

    27 Juli, Freitag

    Zeit Temperatur Niederschläge Wind Luftdruck Luftfeuchtigkeit
    00:00 +29°C° 0 mm 3 m/S 751 mmHg 86%
    01:00 +29°C° 0 mm 2 m/S 751 mmHg 87%
    02:00 +28°C° 0 mm 2 m/S 751 mmHg 87%
    03:00 +28°C° 0 mm 2 m/S 751 mmHg 87%
    04:00 +28°C° 0 mm 2 m/S 751 mmHg 88%
    05:00 +28°C° 0 mm 2 m/S 751 mmHg 88%
    06:00 +28°C° 0 mm 2 m/S 751 mmHg 88%
    07:00 +29°C° 0 mm 2 m/S 751 mmHg 81%
    08:00 +31°C° 0 mm 2 m/S 752 mmHg 73%
    09:00 +33°C° 0 mm 1 m/S 752 mmHg 66%
    10:00 +36°C° 0 mm 2 m/S 751 mmHg 61%
    11:00 +37°C° 0 mm 2 m/S 751 mmHg 57%
    12:00 +38°C° 0 mm 2 m/S 751 mmHg 52%
    13:00 +37°C° 0 mm 2 m/S 751 mmHg 55%
    14:00 +37°C° 0 mm 3 m/S 750 mmHg 59%
    15:00 +37°C° 0 mm 3 m/S 750 mmHg 63%
    16:00 +36°C° 0,1 mm 3 m/S 750 mmHg 67%
    17:00 +35°C° 0,1 mm 3 m/S 750 mmHg 72%
    18:00 +34°C° 0,1 mm 3 m/S 750 mmHg 76%
    19:00 +31°C° 0 mm 2 m/S 751 mmHg 83%
    20:00 +30°C° 0 mm 2 m/S 751 mmHg 89%
    21:00 +28°C° 0 mm 1 m/S 752 mmHg 96%
    22:00 +28°C° 0 mm 1 m/S 752 mmHg 96%
    23:00 +27°C° 0 mm 1 m/S 752 mmHg 96%
    Mehr zeigen